一网星座-0668星 (ONEWEB-0668)

导读 | 豆包AI

ONEWEB-0668是英国OneWeb星座计划中的一颗低轨通信卫星,于2023年5月20日发射入轨。该卫星重约147.5公斤,配备Ku波段天线,运行在近地轨道,采用氙气电推进系统,设计在轨寿命约5年,失效后会主动坠入大气层烧毁。作为OneWeb全球互联网星座的组成部分,它旨在为全球偏远地区、海上和航空等场景提供宽带通信服务,助力实现全球网络覆盖。

Basic Information
目录编号:
56711
目录名称:
ONEWEB-0668
国际标识:
2023-068B
轨道中心:
EARTH
卫星名称:
一网星座-0668星
卫星全名:
一网星座-0668星 (ONEWEB-0668)
卫星状态:
在轨 (已飞行1029 天)
发射日期:
2023-05-20 UTC
国别 :
英国 (GB)
星等 :
--
Orbit Information
数据来源 国际轨道数据 AOE轨道数据
星历时间 2026-03-14T05:37:04+0800
11小时前
查看轨道信息
2026-03-12T17:00:00+0800
2天前
查看轨道信息
半长轴 7575.883km 7575.895km
偏心率 0.000175 0.0001791
轨道倾角 87.902° 87.903°
近地点辐角 78.470° 80.331°
升交点赤经 247.715° 248.019°
平近点角 281.663° 252.299°
近地点 1196.42km 1196.401km
远地点 1199.072km 1199.115km
周期 109.373分钟 109.373分钟
每日圈数 13.165971 13.16594
Detailed Information
平衡模式:
三轴稳定
覆盖范围:
全球
运营商:
一网卫星公司
运营商所在国:
英国
制造商(研发单位):
一网卫星公司
制造商所在国:
英国
使用方式:
暂无
Satellite Introduction
OneWeb卫星网络由648颗重约125公斤的微型卫星组成,运行在1200公里的轨道上。 每颗卫星都能够提供至少每秒8千兆位的吞吐量,以使用其高吞吐量的Ku频段有效载荷为家庭和移动平台提供互联网接入。该卫星仍在工作。
2D Orbit Map
3D Orbit Map
Orbit Altitude Analysis Chart
Orbit Inclination Analysis Chart
Orbit Comprehensive Analysis Chart
View Comprehensive Chart